#timestamp,LO_Frequency,Hit,StdDev 
1456149615.5,286047004.3,N
1456149635.4,286047004.2,N
1456149655.2,286047000.4,N
1456149675.0,286047002.8,N
1456149675.9,286047002.8,N
1456149695.7,286047000.5,N
1456149715.6,286047000.2,N
1456149735.4,286047004.0,N
1456149755.2,286047000.7,N
1456149775.1,286046998.7,N
1456149776.0,286046998.7,N
1456149795.8,286047001.5,N
1456149815.6,286047003.6,N
1456149835.5,286047003.5,N
1456149855.3,286047003.2,N
1456149875.1,286047001.3,N
1456149895.9,286047001.7,N
1456149915.7,286047002.6,N
1456149935.5,286047003.1,N
1456149955.4,286047005.6,Y
1456149975.2,286047002.4,P
1456149995.0,286047000.4,N
1456149995.9,286047000.4,N
1456150015.8,286047001.7,N
1456150035.6,286047003.4,Y
1456150055.4,286047002.5,P
1456150075.3,286047003.8,P
1456150095.1,286047003.1,P
1456150096.0,286047003.1,Y
1456150115.8,286047000.7,P
1456150135.7,286047000.5,N
1456150155.5,286046998.4,N
1456150175.3,286046996.7,N
1456150195.2,286046996.8,N
1456150215.9,286046998.1,N
1456150235.7,286046998.3,N
1456150255.6,286047001.4,N
1456150275.4,286047003.3,N
1456150295.2,286047000.3,N
1456150315.1,286047002.7,N
1456150316.0,286047002.7,N
1456150335.8,286047000.3,N
1456150355.6,286047002.8,N
1456150375.4,286046999.8,N
1456150395.3,286047000.7,N
1456150415.1,286046999.4,N
1456150435.8,286046998.0,N
1456150455.7,286046995.1,N
1456150475.5,286046994.3,N
1456150495.3,286046992.5,N
1456150515.2,286046992.8,N
1456150535.9,286046991.2,N
1456150555.7,286046992.7,N
1456150575.6,286046995.6,N
1456150595.4,286046993.7,N
1456150615.2,286046994.7,N
1456150635.1,286046990.3,N
1456150636.0,286046990.3,N
1456150655.8,286046991.0,N
1456150675.6,286046989.8,N
1456150695.4,286046994.8,N
1456150715.3,286046994.2,N
1456150735.1,286046991.9,N
1456150755.8,286046993.0,N
1456150775.7,286046993.8,N
1456150795.5,286046995.4,N
1456150815.3,286046997.8,N
1456150835.2,286046996.3,N
1456150855.9,286046996.0,N
1456150875.7,286046996.9,N
1456150895.6,286047000.3,N
1456150915.4,286047000.7,N
1456150935.2,286047002.3,N
1456150955.1,286047002.6,N
1456150956.0,286047002.6,N
1456150975.8,286047003.6,N
1456150995.6,286047001.0,N
1456151015.5,286047000.4,N
1456151035.3,286047001.7,N
1456151055.1,286047005.6,N
1456151075.8,286047008.4,N
1456151095.7,286047009.9,N
1456151115.5,286047007.8,N
1456151135.3,286047010.1,N
1456151155.2,286047010.0,N
1456151175.0,286047012.1,N
1456151175.9,286047012.1,N
1456151195.7,286047009.7,N
1456151215.6,286047009.1,N
1456151235.4,286047010.5,N
1456151255.2,286047009.9,N
1456151275.1,286047009.5,N
1456151276.0,286047009.5,N
1456151295.8,286047008.1,N
1456151315.6,286047008.6,N
1456151335.5,286047007.1,N
1456151355.3,286047005.2,N
1456151375.1,286047005.3,N
1456151395.9,286047007.1,N
1456151415.7,286047005.7,N
1456151435.5,286047004.9,N
1456151455.4,286047001.8,N
1456151475.2,286047001.3,N
1456151495.0,286046998.9,N
1456151495.9,286046998.9,N
1456151515.8,286046997.8,N
1456151535.6,286046997.1,N
1456151555.4,286046995.7,N
1456151575.2,286046996.4,N
1456151595.1,286046992.4,N
1456151596.0,286046992.4,N
1456151615.8,286046989.9,N
1456151635.6,286046984.4,N
1456151655.5,286046983.8,N
1456151675.3,286046986.8,N
1456151695.1,286046984.1,N
1456151715.9,286046982.3,N
1456151735.7,286046985.1,N
1456151755.5,286046982.1,N
1456151775.4,286046986.5,N
1456151795.2,286046984.6,N
1456151815.0,286046982.1,N
1456151815.9,286046982.1,N
1456151835.8,286046986.8,N
1456151855.6,286046984.7,N
1456151875.4,286046983.4,N
1456151895.3,286046986.6,N
1456151915.1,286046983.7,N
1456151916.0,286046983.7,N
1456151935.8,286046986.3,N
1456151955.7,286046990.0,N
1456151975.5,286046986.6,N
1456151995.3,286046982.9,N
1456152015.2,286046983.4,Y
1456152035.9,286046996.0,P
1456152055.7,286046997.0,N
1456152075.6,286046997.3,N
1456152095.4,286046995.6,N
1456152115.2,286046992.3,N
1456152135.0,286046995.6,N
1456152135.9,286046995.6,N
1456152155.8,286046996.2,N
1456152175.6,286046996.0,N
1456152195.4,286046996.3,N
1456152215.3,286046990.7,Y
1456152235.1,286046996.2,P
1456152255.8,286046995.9,P
1456152275.7,286046995.9,P
1456152295.5,286046997.9,Y
1456152315.3,286047000.7,P
1456152335.2,286047001.0,N
1456152355.0,286047000.2,N
1456152355.9,286047000.2,N
1456152375.7,286047001.0,N
1456152395.6,286046996.9,N
1456152415.4,286046997.2,N
1456152435.2,286046995.8,N
1456152455.1,286046994.0,N
1456152456.0,286046994.0,N
1456152475.8,286046991.8,Y
1456152495.6,286046997.1,P
1456152515.5,286047000.0,N
1456152535.3,286047001.7,N
1456152555.1,286047002.0,N
1456152575.9,286047004.4,N
1456152595.7,286047004.2,N
1456152615.5,286047002.0,N
1456152635.4,286047002.3,N
1456152655.2,286046999.9,N
1456152675.0,286047004.0,N
1456152675.9,286047004.0,N
1456152695.8,286047003.8,N
1456152715.6,286047001.6,N
1456152735.4,286047002.6,N
1456152755.3,286047001.0,N
1456152775.1,286047007.2,Y
1456152776.0,286047007.2,P
1456152795.8,286047007.2,N
1456152815.7,286047006.1,N
1456152835.5,286047010.4,Y
1456152855.3,286047003.0,P
1456152875.2,286047002.5,N
1456152895.9,286046996.6,N
1456152915.7,286046996.8,N
1456152935.6,286046997.5,N
1456152955.4,286047001.0,N
1456152975.2,286047000.5,N
1456152995.0,286046996.2,N
1456152995.9,286046996.2,N
1456153015.8,286046997.7,N
1456153035.6,286046995.2,N
1456153055.4,286046993.8,N
1456153075.3,286046994.2,N
1456153095.1,286046995.1,N
1456153115.8,286046995.3,N
1456153135.7,286046997.3,N
1456153155.5,286046998.5,N
1456153175.3,286046999.5,N
1456153195.2,286046999.4,N
